CZ-6A DEB, 64639

Orbit data source: Space-Track

CZ-6A DEB, 64639 is space debris in LEO originally from a launch on Tue, 06 Aug 2024 UTC launched from the Taiyaun Space Center, China (TSC). Debris objects in space refer to the collection of defunct objects orbiting the Earth. Examples of debris include non-operational satellites, rocket bodies, and fragments generated from explosions, collisions, or faulty payload assembly.

Loading next visibility...
Identifier
64639, 2024-140AED
Orbit
LEO
Country
Flag of CNCN / PRC
Related business
Manufacturer
SAST
Mission
Spacecraft
Bus & Motor
Unknown
Mass
Unknown
Launch date (UTC)
2024-08-06 (2 years ago)
Launch vehicle
Unknown
Launch site
Taiyaun Space Center, China (TSC)
Object type
Payload
Rocket body
Debris
Shape & HBR
Unknown shape, 0.1 m
Radar Cross Section
Medium (>0.1 m² and <1 m²)

Expand to show TLE details & history
Last TLE update: 4 days ago

TLE from 4 days ago
0 CZ-6A DEB
1 64639U 24140AED 26167.58224381  .00000162  00000-0  96227-4 0  9993
2 64639  88.8366 264.7789 0140367 269.0694  89.4399 13.98331832 89076
Epoch: 2026-06-16T13:58Z
TLE epoch observation values (Epoch: 2026-06-16T13:58:25.865Z)
Latitude
-0.00004°
Longitude
150.31892°
Altitude
903.035 km
Speed
7.4 km/s
True Right ascension
17h 39m 06s
True Declination
0° 00' 00"
Sunlit
Object was in full shadow at epoch
Visualization orbit readout
Latitude
Unknown
Longitude
Unknown
Altitude
Unknown
Speed
Unknown
Apparent Right ascension
Unknown
Apparent Declination
Unknown
Sunlit
N/A
Visualization observer readout
Local Sidereal Time
07:21:01
Azimuth
Unknown
Elevation
Unknown
Doppler factor
Unknown
Orbital elements
Apogee altitude
998.673 km
Perigee altitude
794.447 km
Semi-major axis
7,274.697 km
Eccentricity
0.01404
Inclination
88.8366°
RAAN
264.7789°
Arg. of periapsis
269.0694°
True anomaly
91.04838°
Mean anomaly
89.4399°
Eccentric anomaly
90.24414°
Mean motion
3.49801 °/min
Orbital period
102.92 mins
BSTAR
0.000096227
Loading maneuver chart data...
Computing Atmospheric mass density...
Loading historical data...
Loading historical data...
Loading historical data...
Loading historical data...
Loading historical data...
Loading historical data...
Loading historical data...

Documentation

Showing up to 5 results
|